Location: Fort Wayne
(41.1310°N, 85.1290°W)
Time: 12:55:18
(UTC-04:00)

SR - Visible Passes

Search period start: 30 April 2016 00:00
Search period end: 10 May 2016 00:00
Orbit: 579 x 879 km, 66.7° (Epoch: 29 April)

Date Brightness Start Highest point End Pass type
(mag) Time Alt. Az. Time Alt. Az. Time Alt. Az.
30 Apr ? 00:55:53 11° W 00:59:43 20° NW 01:03:42 10° N visible
30 Apr ? 22:26:04 30° SSE 22:27:57 38° ESE 22:33:01 10° NE visible
01 May ? 00:05:15 12° WSW 00:10:06 35° NW 00:15:01 10° NNE visible
01 May ? 21:34:52 10° SSE 21:38:56 20° ESE 21:42:53 10° ENE visible
01 May ? 23:14:57 10° SW 23:20:40 63° WNW 23:26:02 10° NNE visible
02 May ? 01:01:25 10° WNW 01:03:45 13° NW 01:06:02 10° NNW visible
02 May ? 22:25:37 10° SSW 22:31:23 71° ESE 22:36:48 10° NE visible
03 May ? 00:09:45 10° W 00:13:56 21° NW 00:17:57 10° N visible
03 May ? 21:36:58 10° S 21:42:14 37° ESE 21:47:13 10° NE visible
03 May ? 23:19:08 10° WSW 23:24:21 36° NW 23:29:16 10° NNE visible
04 May ? 22:29:13 10° SW 22:34:55 65° WNW 22:40:16 10° NNE visible
05 May ? 00:15:32 10° WNW 00:17:58 13° NW 00:20:21 10° NNW visible
05 May ? 05:30:45 10° N 05:33:00 13° NE 05:35:11 10° ENE visible
05 May ? 21:39:55 10° SSW 21:45:39 69° ESE 21:51:01 10° NE visible
05 May ? 23:23:56 10° W 23:28:10 21° NW 23:32:13 10° N visible
06 May ? 22:33:21 10° WSW 22:38:35 37° NW 22:43:30 10° NNE visible
07 May ? 05:33:18 10° N 05:36:58 22° NE 05:40:25 10° E visible
07 May ? 21:43:28 10° SW 21:49:10 67° WNW 21:54:30 10° NNE visible
07 May ? 23:29:39 10° WNW 23:32:10 13° NW 23:34:38 10° NNW visible
08 May ? 04:45:08 10° NNE 04:47:12 13° NE 04:49:13 10° ENE visible
08 May ? 22:38:07 10° W 22:42:24 22° NW 22:46:29 10° N visible
09 May ? 05:36:22 10° NNW 05:40:43 41° NE 05:44:48 10° SE visible
09 May ? 21:47:35 10° WSW 21:52:49 38° NW 21:57:45 10° NNE visible
